Regional Weather Roundup
Issued by NWS Goodland, KS

Home | Current Version | Previous Version | Graphics & Text | Print | Product List | Glossary On
Versions: 1 2 3 4 5 6 7 8 9 10 11 12 13 14 15 16 17 18 19 20 21 22 23 24 25 26 27 28 29 30 31 32 33 34 35 36 37 38 39 40 41 42 43 44 45 46 47 48 49 50
000
ASUS43 KGLD 290559
RWRGLD

GOODLAND FORECAST AREA HOURLY WEATHER ROUNDUP
NATIONAL WEATHER SERVICE GOODLAND KS
1200 AM MDT MON AUG 29 2016

...OFFICIAL OBSERVATIONS...

CITY           SKY/WX    TMP DP  RH WIND       PRES   REMARKS
GOODLAND KS    PTCLDY    66  62  87 S12       30.18S
HILL CITY KS   CLOUDY    69  63  81 S6        30.15R
IMPERIAL NEB   MOCLDY    64  60  87 SE9       30.15F
MCCOOK NEB     PTCLDY    69  62  78 S6        30.13F
AKRON CO       CLOUDY    67  45  45 SW5       30.20F
BURLINGTON CO  CLEAR     66  59  78 S9        30.20S
LIMON CO       TSTM      57  55  93 NE5       30.28F
$$

...UNOFFICIAL OBSERVATIONS...

CITY           SKY/WX    TMP DP  RH WIND       PRES   REMARKS
COLBY KS       PTCLDY    70  64  83 S10G16    30.17F
LENORA KS        N/A     68  32  26 MISG        N/A
NORTON KS      PTCLDY    70  59  68 SE8       30.13F
SHARON SPRINGS   N/A     65  60  85 S8          N/A
TRENTON NEB      N/A     68  32  26 MISG        N/A
KIT CARSON CO    N/A     68  60  75 MISG        N/A
YUMA CO          N/A     64  55  73 CALM        N/A
$$




USA.gov is the U.S. government's official web portal to all federal, state and local government web resources and services.